Skip Page Navigation
NASA JPL Caltech
NASA Logo - Jet Propulsion Laboratory + View the NASA Portal
+ Center for Near-Earth Object Studies
JPL Home Earth Solar System Stars & Galaxies Technology
JPL Solar System Dynamics
BODIES ORBITS EPHEMERIDES TOOLS PHYSICAL DATA DISCOVERY FAQ SITE MAP
IMPORTANT: The SSD Announcement email list is now available. Major changes are coming in the near future, including possible hostname and/or URL changes. To be notified of such changes, subscribe to this email list.

Please visit this page for more details.


JPL Small-Body Database Browser
Search: [ help ]  
347234 (2011 JL10)
Classification: Main-belt Asteroid          SPK-ID: 2347234
Ephemeris | Orbit Diagram | Orbital Elements | Mission Design | Physical Parameters | Discovery Circumstances | Close-Approach Data ]

[ show orbit diagram ]
Orbital Elements at Epoch 2459000.5 (2020-May-31.0) TDB
Reference: JPL 8 (heliocentric ecliptic J2000)
 Element Value Uncertainty (1-sigma)   Units 
e .2402639034057774 8.923e-08  
a 3.172352797194212 1.0845e-07 au
q 2.410150931160094 2.9785e-07 au
i 25.50370626342668 2.2883e-05 deg
node 219.184299207361 2.3212e-05 deg
peri 71.8492799293232 7.0242e-05 deg
M 186.8557168232538 7.5352e-05 deg
tp 2459993.104641414398
(2023-Feb-17.60464141)
0.00047407 TDB
period 2063.814434718655
5.65
0.00010583
2.897e-07
d
yr
n .1744342872808118 8.9452e-09 deg/d
Q 3.934554663228329 1.3451e-07 au
  Orbit Determination Parameters
   # obs. used (total)      80  
   data-arc span      4845 days (13.26 yr)  
   first obs. used      2005-07-11  
   last obs. used      2018-10-16  
   planetary ephem.      DE431  
   SB-pert. ephem.      SB431-N16  
   condition code      0  
   norm. resid. RMS      .63762  
   source      ORB  
   producer      Otto Matic  
   solution date      2018-Oct-31 04:54:58  

Additional Information
 Earth MOID = 1.52195 au 
 Jupiter MOID = 1.60838 au 
 T_jup = 3.008 
[ show covariance matrix ]

Ephemeris | Orbit Diagram | Orbital Elements | Mission Design | Physical Parameters | Discovery Circumstances | Close-Approach Data ]

Physical Parameter Table
Parameter Symbol Value Units Sigma Reference Notes
absolute magnitude H 15.9   n/a MPO242929  
diameter diameter 5.226 km 0.895 urn:nasa:pds:neowise_diameters_albedos::2.0[mainbelt] (http://adsabs.harvard.edu/abs/2011ApJ...741...68M)  
geometric albedo albedo 0.018   0.006 urn:nasa:pds:neowise_diameters_albedos::2.0[mainbelt] (http://adsabs.harvard.edu/abs/2011ApJ...741...68M)  

347234 (2011 JL10)          Discovered 2005-Jul-11 by Spacewatch at Kitt Peak
Reference: 20121128/Numbers.arcLast Updated: 2012-12-03

[ hide close-approach data ]
Close-Approach Data   ...sorted by Date/Time (TDB)
Date/Time (TDB) Time Uncertainty
(days_HH:MM)
Body Nominal Distance (au) Minimum Distance (au) Maximum Distance (au) V-relative (km/s) V-infinity (km/s) JD (TDB) Time Uncertainty (minutes) Semi-major axis (km) Semi-minor axis (km) range-LOV angle (deg) N-sigma BP Orbit Ref. Reference Modified
1918-Mar-09 00:39 00:10 Jupiter 1.80222993164356 1.80221873344214 1.80224113036643 6.96408423309581 6.89626692941233 2421661.527380673 9.59143974895889 1678.93031724748 132.991998211482 71.1135134068488 747911.160127299 T 8 CATAB v2.0e-lin.ifort 2018-Oct-31 04:55:00 2018-Dec-18 01:40
1929-Mar-19 01:39 00:09 Jupiter 1.63760353973479 1.63759677426872 1.63761030615062 6.94797196320546 6.87312508937055 2425689.569037723 8.61929287558374 2082.93226606488 89.3785827449583 -81.0841657618933 874252.849059316 T 8 CATAB v2.0e-lin.ifort 2018-Oct-31 04:55:00 2018-Dec-18 01:40
2024-Dec-22 20:38 00:02 Jupiter 1.85182280599414 1.85181981508472 1.85182579690366 6.9434906139638 6.87730057804145 2460667.359732554 1.69758521794668 280.519801507649 143.721349210016 84.752832501592 698615.927134321 T 8 CATAB v2.0e-lin.ifort 2018-Oct-31 04:55:00 2018-Dec-18 01:40
2036-Jan-01 13:37 00:03 Jupiter 1.64182556895675 1.64182309296163 1.64182804495849 6.94357274745915 6.86887157894914 2464694.067707182 2.57545469329837 557.004422264802 114.916824823868 -85.8610667349231 831146.84078608 T 8 CATAB v2.0e-lin.ifort 2018-Oct-31 04:55:00 2018-Dec-18 01:40
2131-Oct-10 21:59 00:12 Jupiter 1.90249425236876 1.90247746306714 1.90251104217335 6.92245976781755 6.85784335768344 2499674.415939342 12.2026403154622 1784.12630083704 149.631140781622 62.4500041052153 726382.915895112 T 8 CATAB v2.0e-lin.ifort 2018-Oct-31 04:55:00 2018-Dec-18 01:40
2142-Oct-19 02:31 00:13 Jupiter 1.64548971125605 1.64548650271249 1.64549292088715 6.93784841807319 6.86325232994984 2503700.604576638 13.2420074448278 2817.30699491677 103.165629632608 -87.5365903889027 884437.939267769 T 8 CATAB v2.0e-lin.ifort 2018-Oct-31 04:55:00 2018-Dec-18 01:40

Alternate Designations
 2011 JL10 = 2005 NJ55 = 2010 KU64 
Ephemeris | Orbit Diagram | Orbital Elements | Mission Design | Physical Parameters | Discovery Circumstances | Close-Approach Data ]
ABOUT SSD CREDITS/AWARDS PRIVACY/COPYRIGHT GLOSSARY LINKS
FirstGov 2020-Mar-28 22:36 UT
(server date/time)  
NASA Home Page
Site Manager:   Ryan S. Park
Webmaster  Alan B. Chamberlin